Time,TemperatureF,DewpointF,PressureIn,WindDirection,WindDirectionDegrees,WindSpeedMPH,WindSpeedGustMPH,Humidity,HourlyPrecipIn,Conditions,Clouds,dailyrainin,SoftwareType,DateUTC
2013-05-21 00:00:00,72.5,60.0,29.98,WNW,293,8.1,10.3,65,2.59,,,9.51,WUHU216HW,2013-05-21 04:00:00,
2013-05-21 00:01:00,72.5,60.0,29.98,SSW,203,8.1,10.3,65,2.59,,,0.00,WUHU216HW,2013-05-21 04:01:00,
2013-05-21 00:06:00,71.8,59.9,29.97,NE,45,5.4,10.3,66,2.59,,,0.39,WUHU216HW,2013-05-21 04:06:00,
2013-05-21 00:11:00,71.3,59.3,29.97,ENE,68,4.0,7.4,66,2.59,,,0.39,WUHU216HW,2013-05-21 04:11:00,
2013-05-21 00:16:00,70.9,59.9,29.97,WNW,293,2.0,7.4,68,2.59,,,0.39,WUHU216HW,2013-05-21 04:16:00,
2013-05-21 00:21:00,70.2,59.5,29.97,NE,45,3.4,5.8,69,2.59,,,0.39,WUHU216HW,2013-05-21 04:21:00,
2013-05-21 00:26:00,69.7,59.4,29.97,ESE,113,0.4,5.6,70,2.59,,,0.39,WUHU216HW,2013-05-21 04:26:00,
2013-05-21 00:31:00,69.5,59.2,29.97,SE,135,1.6,4.7,70,2.59,,,0.39,WUHU216HW,2013-05-21 04:31:00,
2013-05-21 00:36:00,69.5,59.2,29.97,SE,135,1.8,2.9,70,2.59,,,0.39,WUHU216HW,2013-05-21 04:36:00,
2013-05-21 00:41:00,69.3,59.1,29.96,SE,135,1.1,2.9,70,2.59,,,0.39,WUHU216HW,2013-05-21 04:41:00,
2013-05-21 00:46:00,69.1,59.0,29.95,East,90,0.0,2.9,70,2.59,,,0.39,WUHU216HW,2013-05-21 04:46:00,
2013-05-21 00:51:00,68.9,59.1,29.95,SSE,158,2.5,2.9,71,2.59,,,0.39,WUHU216HW,2013-05-21 04:51:00,
2013-05-21 00:56:00,68.8,59.4,29.95,South,180,2.2,3.4,72,2.59,,,0.39,WUHU216HW,2013-05-21 04:56:00,
2013-05-21 01:01:00,68.4,59.0,29.94,South,180,3.4,4.7,72,2.59,,,0.39,WUHU216HW,2013-05-21 05:01:00,
2013-05-21 01:06:00,68.0,58.7,29.94,South,180,1.6,4.7,72,2.59,,,0.79,WUHU216HW,2013-05-21 05:06:00,
2013-05-21 01:11:00,67.9,58.5,29.94,SSE,158,1.6,2.5,72,2.59,,,0.79,WUHU216HW,2013-05-21 05:11:00,
2013-05-21 01:16:00,67.7,58.8,29.94,NW,315,0.2,2.5,73,2.59,,,0.79,WUHU216HW,2013-05-21 05:16:00,
2013-05-21 01:21:00,67.5,58.6,29.93,SW,225,2.7,2.7,73,2.59,,,0.79,WUHU216HW,2013-05-21 05:21:00,
2013-05-21 01:26:00,67.3,58.8,29.93,WSW,248,1.3,3.4,74,2.59,,,0.79,WUHU216HW,2013-05-21 05:26:00,
2013-05-21 01:31:00,67.1,58.6,29.94,ESE,113,0.2,3.8,74,2.59,,,0.79,WUHU216HW,2013-05-21 05:31:00,
2013-05-21 01:36:00,67.0,58.4,29.95,NW,315,1.1,3.8,74,2.59,,,0.79,WUHU216HW,2013-05-21 05:36:00,
2013-05-21 01:41:00,67.0,58.4,29.94,South,180,0.0,1.8,74,2.59,,,0.79,WUHU216HW,2013-05-21 05:41:00,
2013-05-21 01:46:00,67.0,58.4,29.94,SSE,158,0.0,0.4,74,2.59,,,0.79,WUHU216HW,2013-05-21 05:46:00,
2013-05-21 01:51:00,67.0,58.4,29.94,SSE,158,1.1,1.6,74,2.59,,,0.79,WUHU216HW,2013-05-21 05:51:00,
2013-05-21 01:56:00,67.0,58.4,29.93,South,180,1.8,1.8,74,2.59,,,0.79,WUHU216HW,2013-05-21 05:56:00,
2013-05-21 02:01:00,67.0,58.4,29.93,South,180,2.5,3.4,74,2.59,,,0.79,WUHU216HW,2013-05-21 06:01:00,
2013-05-21 02:06:00,66.6,58.4,29.92,WNW,293,1.6,3.6,75,2.59,,,1.18,WUHU216HW,2013-05-21 06:06:00,
2013-05-21 02:11:00,66.4,58.6,29.92,South,180,1.1,4.3,76,2.59,,,1.18,WUHU216HW,2013-05-21 06:11:00,
2013-05-21 02:16:00,66.2,58.8,29.91,SSE,158,1.1,4.3,77,2.59,,,1.18,WUHU216HW,2013-05-21 06:16:00,
2013-05-21 02:21:00,66.2,58.4,29.92,SW,225,3.1,3.1,76,2.59,,,1.18,WUHU216HW,2013-05-21 06:21:00,
2013-05-21 02:26:00,66.2,58.8,29.92,SW,225,3.8,3.8,77,2.59,,,1.18,WUHU216HW,2013-05-21 06:26:00,
2013-05-21 02:31:00,66.1,58.6,29.92,WSW,248,1.3,3.8,77,2.59,,,1.18,WUHU216HW,2013-05-21 06:31:00,
2013-05-21 02:36:00,66.1,58.6,29.92,South,180,1.3,2.2,77,2.59,,,1.18,WUHU216HW,2013-05-21 06:36:00,
2013-05-21 02:41:00,66.1,58.6,29.91,SE,135,1.3,2.0,77,2.59,,,1.18,WUHU216HW,2013-05-21 06:41:00,
2013-05-21 02:46:00,65.9,58.5,29.92,SE,135,0.9,2.2,77,2.59,,,1.18,WUHU216HW,2013-05-21 06:46:00,
2013-05-21 02:51:00,65.9,58.5,29.92,East,90,1.1,2.2,77,2.59,,,1.18,WUHU216HW,2013-05-21 06:51:00,
2013-05-21 02:56:00,65.9,58.5,29.92,South,180,0.9,1.1,77,2.59,,,1.18,WUHU216HW,2013-05-21 06:56:00,
2013-05-21 03:01:00,65.9,58.5,29.92,SSE,158,1.3,1.3,77,2.59,,,1.18,WUHU216HW,2013-05-21 07:01:00,
2013-05-21 03:06:00,65.9,58.5,29.92,SSW,203,1.3,1.3,77,2.59,,,1.58,WUHU216HW,2013-05-21 07:06:00,
2013-05-21 03:11:00,66.1,58.6,29.92,SW,225,0.0,3.4,77,2.59,,,1.58,WUHU216HW,2013-05-21 07:11:00,
2013-05-21 03:16:00,66.1,59.1,29.92,SSW,203,1.8,3.4,78,2.59,,,1.58,WUHU216HW,2013-05-21 07:16:00,
2013-05-21 03:21:00,66.1,59.1,29.92,SSW,203,1.3,2.7,78,2.59,,,1.58,WUHU216HW,2013-05-21 07:21:00,
2013-05-21 03:26:00,66.2,58.8,29.92,SE,135,0.7,1.6,77,2.59,,,1.58,WUHU216HW,2013-05-21 07:26:00,
2013-05-21 03:31:00,66.2,58.8,29.92,South,180,0.9,1.8,77,2.59,,,1.58,WUHU216HW,2013-05-21 07:31:00,
2013-05-21 03:36:00,66.2,59.2,29.92,SSW,203,3.4,3.4,78,2.59,,,1.58,WUHU216HW,2013-05-21 07:36:00,
2013-05-21 03:41:00,66.2,59.2,29.91,WSW,248,2.2,3.6,78,2.59,,,1.58,WUHU216HW,2013-05-21 07:41:00,
2013-05-21 03:46:00,66.1,59.1,29.91,SSE,158,1.1,3.6,78,2.59,,,1.58,WUHU216HW,2013-05-21 07:46:00,
2013-05-21 03:51:00,65.9,58.9,29.91,West,270,5.6,5.6,78,2.59,,,1.58,WUHU216HW,2013-05-21 07:51:00,
2013-05-21 03:56:00,65.9,58.9,29.90,WSW,248,2.2,5.6,78,2.59,,,1.58,WUHU216HW,2013-05-21 07:56:00,
2013-05-21 04:01:00,65.7,59.1,29.90,SSE,158,3.4,4.7,79,2.59,,,1.58,WUHU216HW,2013-05-21 08:01:00,
2013-05-21 04:06:00,65.7,59.1,29.90,SW,225,3.8,4.7,79,2.59,,,1.98,WUHU216HW,2013-05-21 08:06:00,
2013-05-21 04:11:00,65.5,58.9,29.90,WSW,248,3.4,4.7,79,2.59,,,1.98,WUHU216HW,2013-05-21 08:11:00,
2013-05-21 04:16:00,65.5,58.9,29.90,SW,225,2.5,4.7,79,2.59,,,1.98,WUHU216HW,2013-05-21 08:16:00,
2013-05-21 04:21:00,65.5,58.9,29.90,SSW,203,2.0,5.6,79,2.59,,,1.98,WUHU216HW,2013-05-21 08:21:00,
2013-05-21 04:26:00,65.5,58.9,29.90,SSW,203,1.1,5.6,79,2.59,,,1.98,WUHU216HW,2013-05-21 08:26:00,
2013-05-21 04:31:00,65.5,58.9,29.90,SSE,158,2.5,5.4,79,2.59,,,1.98,WUHU216HW,2013-05-21 08:31:00,
2013-05-21 04:36:00,65.5,58.9,29.90,WSW,248,2.7,3.4,79,2.59,,,1.98,WUHU216HW,2013-05-21 08:36:00,
2013-05-21 04:41:00,65.5,58.5,29.90,SSE,158,1.1,3.1,78,2.59,,,1.98,WUHU216HW,2013-05-21 08:41:00,
2013-05-21 04:46:00,65.3,58.7,29.90,NNE,23,2.0,3.1,79,2.59,,,1.98,WUHU216HW,2013-05-21 08:46:00,
2013-05-21 04:51:00,65.3,58.7,29.90,SW,225,3.1,3.4,79,2.59,,,1.98,WUHU216HW,2013-05-21 08:51:00,
2013-05-21 04:56:00,65.3,58.3,29.90,South,180,1.6,3.4,78,2.59,,,1.98,WUHU216HW,2013-05-21 08:56:00,
2013-05-21 05:01:00,65.3,58.3,29.90,WNW,293,1.1,3.1,78,2.59,,,1.98,WUHU216HW,2013-05-21 09:01:00,
2013-05-21 05:06:00,65.3,58.3,29.90,East,90,0.7,2.5,78,2.59,,,2.37,WUHU216HW,2013-05-21 09:06:00,
2013-05-21 05:11:00,65.3,58.3,29.90,South,180,1.8,2.5,78,2.59,,,2.37,WUHU216HW,2013-05-21 09:11:00,
2013-05-21 05:16:00,65.2,58.2,29.90,WSW,248,3.6,3.6,78,2.59,,,2.37,WUHU216HW,2013-05-21 09:16:00,
2013-05-21 05:21:00,65.3,58.3,29.90,SSE,158,2.9,3.6,78,2.59,,,2.37,WUHU216HW,2013-05-21 09:21:00,
2013-05-21 05:26:00,65.3,58.3,29.90,SSW,203,2.5,4.7,78,2.59,,,2.37,WUHU216HW,2013-05-21 09:26:00,
2013-05-21 05:31:00,65.3,58.3,29.90,South,180,3.4,4.7,78,2.59,,,2.37,WUHU216HW,2013-05-21 09:31:00,
2013-05-21 05:36:00,65.3,58.3,29.91,SSW,203,3.4,4.3,78,2.59,,,2.37,WUHU216HW,2013-05-21 09:36:00,
2013-05-21 05:41:00,65.5,58.5,29.91,South,180,1.1,4.3,78,2.59,,,2.37,WUHU216HW,2013-05-21 09:41:00,
2013-05-21 05:46:00,65.5,58.5,29.90,SW,225,2.2,3.6,78,2.59,,,2.37,WUHU216HW,2013-05-21 09:46:00,
2013-05-21 05:51:00,65.5,58.5,29.91,South,180,2.7,3.6,78,2.59,,,2.37,WUHU216HW,2013-05-21 09:51:00,
2013-05-21 05:56:00,65.5,58.5,29.91,South,180,1.8,3.4,78,2.59,,,2.37,WUHU216HW,2013-05-21 09:56:00,
2013-05-21 06:01:00,65.5,58.5,29.91,ESE,113,1.6,3.6,78,2.59,,,2.37,WUHU216HW,2013-05-21 10:01:00,
2013-05-21 06:06:00,65.5,58.5,29.91,South,180,1.1,3.6,78,2.59,,,2.77,WUHU216HW,2013-05-21 10:06:00,
2013-05-21 06:11:00,65.5,58.5,29.92,WSW,248,1.8,4.0,78,2.59,,,2.77,WUHU216HW,2013-05-21 10:11:00,
2013-05-21 06:16:00,65.5,58.5,29.92,WSW,248,3.4,4.0,78,2.59,,,2.77,WUHU216HW,2013-05-21 10:16:00,
2013-05-21 06:21:00,65.9,59.2,29.92,WSW,248,3.4,4.7,79,2.59,,,2.77,WUHU216HW,2013-05-21 10:21:00,
2013-05-21 06:26:00,65.9,59.2,29.92,SW,225,3.4,4.7,79,2.59,,,2.77,WUHU216HW,2013-05-21 10:26:00,
2013-05-21 06:31:00,66.2,59.6,29.92,SW,225,3.6,3.6,79,2.59,,,2.77,WUHU216HW,2013-05-21 10:31:00,
2013-05-21 06:36:00,66.2,59.6,29.92,SSW,203,2.0,3.6,79,2.59,,,2.77,WUHU216HW,2013-05-21 10:36:00,
2013-05-21 06:41:00,66.4,59.8,29.92,SSW,203,2.0,3.4,79,2.59,,,2.77,WUHU216HW,2013-05-21 10:41:00,
2013-05-21 06:46:00,66.4,60.1,29.91,SW,225,4.0,4.3,80,2.59,,,2.77,WUHU216HW,2013-05-21 10:46:00,
2013-05-21 06:51:00,66.6,60.3,29.92,South,180,2.7,4.3,80,2.59,,,2.77,WUHU216HW,2013-05-21 10:51:00,
2013-05-21 06:56:00,66.6,60.3,29.92,SW,225,2.7,4.0,80,2.59,,,2.77,WUHU216HW,2013-05-21 10:56:00,
2013-05-21 07:01:00,67.0,60.7,29.91,South,180,1.6,4.0,80,2.59,,,2.77,WUHU216HW,2013-05-21 11:01:00,
2013-05-21 07:06:00,67.0,60.7,29.92,SSW,203,1.8,3.4,80,2.59,,,3.16,WUHU216HW,2013-05-21 11:06:00,
2013-05-21 07:11:00,67.3,61.0,29.92,WSW,248,1.8,4.3,80,2.59,,,3.16,WUHU216HW,2013-05-21 11:11:00,
2013-05-21 07:16:00,67.5,61.2,29.92,South,180,0.7,4.3,80,2.59,,,3.16,WUHU216HW,2013-05-21 11:16:00,
2013-05-21 07:21:00,68.0,61.7,29.92,West,270,0.4,2.5,80,2.59,,,3.16,WUHU216HW,2013-05-21 11:21:00,
2013-05-21 07:26:00,68.4,62.1,29.92,SW,225,1.8,2.7,80,2.59,,,3.16,WUHU216HW,2013-05-21 11:26:00,
2013-05-21 07:31:00,68.8,62.4,29.92,SSW,203,1.8,3.4,80,2.59,,,3.16,WUHU216HW,2013-05-21 11:31:00,
2013-05-21 07:36:00,69.1,62.7,29.92,SSW,203,3.4,4.0,80,2.59,,,3.16,WUHU216HW,2013-05-21 11:36:00,
2013-05-21 07:41:00,69.7,63.6,29.92,West,270,4.9,4.9,81,2.59,,,3.16,WUHU216HW,2013-05-21 11:41:00,
2013-05-21 07:46:00,70.4,64.6,29.92,NW,315,4.0,7.6,82,2.59,,,3.16,WUHU216HW,2013-05-21 11:46:00,
2013-05-21 07:51:00,71.3,65.5,29.92,NNW,338,4.0,7.6,82,2.59,,,3.16,WUHU216HW,2013-05-21 11:51:00,
2013-05-21 07:56:00,72.0,65.9,29.92,WNW,293,6.3,7.8,81,2.59,,,3.16,WUHU216HW,2013-05-21 11:56:00,
2013-05-21 08:01:00,72.5,66.1,29.92,NW,315,4.7,7.8,80,2.59,,,3.16,WUHU216HW,2013-05-21 12:01:00,
2013-05-21 08:06:00,73.1,67.0,29.92,NW,315,3.8,6.5,81,2.59,,,3.56,WUHU216HW,2013-05-21 12:06:00,
2013-05-21 08:11:00,73.6,67.5,29.91,NW,315,4.9,7.8,81,2.59,,,3.56,WUHU216HW,2013-05-21 12:11:00,
2013-05-21 08:16:00,74.2,67.7,29.91,West,270,3.8,9.2,80,2.59,,,3.56,WUHU216HW,2013-05-21 12:16:00,
2013-05-21 08:21:00,74.5,67.7,29.91,NW,315,8.3,9.2,79,2.59,,,3.56,WUHU216HW,2013-05-21 12:21:00,
2013-05-21 08:26:00,74.9,67.6,29.92,WNW,293,7.8,9.2,78,2.59,,,3.56,WUHU216HW,2013-05-21 12:26:00,
2013-05-21 08:31:00,75.1,67.8,29.92,NNW,338,4.3,9.8,78,2.59,,,3.56,WUHU216HW,2013-05-21 12:31:00,
2013-05-21 08:36:00,75.2,68.0,29.92,WNW,293,7.6,9.8,78,2.59,,,3.56,WUHU216HW,2013-05-21 12:36:00,
2013-05-21 08:41:00,75.6,68.3,29.92,NW,315,9.2,9.4,78,2.59,,,3.56,WUHU216HW,2013-05-21 12:41:00,
2013-05-21 08:46:00,75.8,68.5,29.92,WNW,293,9.6,9.6,78,2.59,,,3.56,WUHU216HW,2013-05-21 12:46:00,
2013-05-21 08:51:00,76.0,68.7,29.92,NW,315,4.5,10.1,78,2.59,,,3.56,WUHU216HW,2013-05-21 12:51:00,
2013-05-21 08:56:00,76.3,68.6,29.92,WNW,293,6.9,10.1,77,2.59,,,3.56,WUHU216HW,2013-05-21 12:56:00,
2013-05-21 09:01:00,76.7,68.5,29.92,NNW,338,7.6,9.2,76,2.59,,,3.56,WUHU216HW,2013-05-21 13:01:00,
2013-05-21 09:06:00,76.5,68.4,29.92,WNW,293,6.7,10.7,76,2.59,,,3.96,WUHU216HW,2013-05-21 13:06:00,
2013-05-21 09:11:00,76.0,68.2,29.92,WNW,293,7.8,10.7,77,2.59,,,3.96,WUHU216HW,2013-05-21 13:11:00,
2013-05-21 09:16:00,75.8,68.0,29.92,WNW,293,5.6,8.7,77,2.59,,,3.96,WUHU216HW,2013-05-21 13:16:00,
2013-05-21 09:21:00,75.8,68.5,29.92,NW,315,7.4,8.7,78,2.59,,,3.96,WUHU216HW,2013-05-21 13:21:00,
2013-05-21 09:26:00,76.1,68.8,29.91,NW,315,4.7,8.9,78,2.59,,,3.96,WUHU216HW,2013-05-21 13:26:00,
2013-05-21 09:31:00,76.7,68.5,29.91,WNW,293,4.7,8.9,76,2.59,,,3.96,WUHU216HW,2013-05-21 13:31:00,
2013-05-21 09:36:00,77.2,69.0,29.91,NW,315,6.9,7.6,76,2.59,,,3.96,WUHU216HW,2013-05-21 13:36:00,
2013-05-21 09:41:00,77.4,68.9,29.91,NW,315,7.6,9.8,75,2.59,,,3.96,WUHU216HW,2013-05-21 13:41:00,
2013-05-21 09:46:00,77.6,69.0,29.91,WNW,293,5.4,9.8,75,2.59,,,3.96,WUHU216HW,2013-05-21 13:46:00,
2013-05-21 09:51:00,77.8,68.8,29.90,NW,315,5.8,9.2,74,2.59,,,3.96,WUHU216HW,2013-05-21 13:51:00,
2013-05-21 09:56:00,77.8,69.2,29.90,NW,315,6.9,9.2,75,2.59,,,3.96,WUHU216HW,2013-05-21 13:56:00,
2013-05-21 10:01:00,78.1,69.1,29.90,NW,315,7.6,10.3,74,2.59,,,3.96,WUHU216HW,2013-05-21 14:01:00,
2013-05-21 10:06:00,78.5,69.5,29.90,NW,315,4.9,10.3,74,2.59,,,4.35,WUHU216HW,2013-05-21 14:06:00,
2013-05-21 10:11:00,78.8,69.4,29.89,NW,315,2.7,10.1,73,2.59,,,4.35,WUHU216HW,2013-05-21 14:11:00,
2013-05-21 10:16:00,79.4,69.1,29.89,NW,315,8.7,8.7,71,2.59,,,4.35,WUHU216HW,2013-05-21 14:16:00,
2013-05-21 10:21:00,79.7,69.5,29.89,North,0,4.0,8.7,71,2.59,,,4.35,WUHU216HW,2013-05-21 14:21:00,
2013-05-21 10:26:00,79.9,69.7,29.89,NW,315,8.3,9.8,71,2.59,,,4.35,WUHU216HW,2013-05-21 14:26:00,
2013-05-21 10:31:00,80.3,69.7,29.89,West,270,9.2,9.8,70,2.59,,,4.35,WUHU216HW,2013-05-21 14:31:00,
2013-05-21 10:36:00,80.3,69.2,29.89,NNW,338,5.8,9.2,69,2.59,,,4.35,WUHU216HW,2013-05-21 14:36:00,
2013-05-21 10:41:00,80.8,69.8,29.89,WSW,248,4.9,8.5,69,2.59,,,4.35,WUHU216HW,2013-05-21 14:41:00,
2013-05-21 10:46:00,81.4,69.3,29.89,NW,315,6.3,10.3,67,2.59,,,4.35,WUHU216HW,2013-05-21 14:46:00,
2013-05-21 10:51:00,81.2,69.1,29.90,NW,315,6.5,10.3,67,2.59,,,4.35,WUHU216HW,2013-05-21 14:51:00,
2013-05-21 10:56:00,81.2,69.1,29.90,NW,315,4.7,8.9,67,2.59,,,4.35,WUHU216HW,2013-05-21 14:56:00,
2013-05-21 11:01:00,81.4,69.3,29.90,West,270,7.6,8.9,67,2.59,,,4.35,WUHU216HW,2013-05-21 15:01:00,
2013-05-21 11:06:00,81.0,68.6,29.90,WNW,293,11.9,11.9,66,2.59,,,4.75,WUHU216HW,2013-05-21 15:06:00,
2013-05-21 11:11:00,80.3,67.9,29.90,NNW,338,9.2,12.8,66,2.59,,,4.75,WUHU216HW,2013-05-21 15:11:00,
2013-05-21 11:16:00,80.5,67.6,29.89,NW,315,9.2,12.8,65,2.59,,,4.75,WUHU216HW,2013-05-21 15:16:00,
2013-05-21 11:21:00,81.0,68.6,29.89,NW,315,7.6,9.2,66,2.59,,,4.75,WUHU216HW,2013-05-21 15:21:00,
2013-05-21 11:26:00,81.2,67.8,29.89,NNW,338,6.7,12.1,64,2.59,,,4.75,WUHU216HW,2013-05-21 15:26:00,
2013-05-21 11:31:00,81.0,67.7,29.89,NW,315,9.4,12.1,64,2.59,,,4.75,WUHU216HW,2013-05-21 15:31:00,
2013-05-21 11:36:00,81.2,68.2,29.89,NW,315,6.3,10.5,65,2.59,,,4.75,WUHU216HW,2013-05-21 15:36:00,
2013-05-21 11:41:00,81.7,68.3,29.89,WNW,293,11.2,11.2,64,2.59,,,4.75,WUHU216HW,2013-05-21 15:41:00,
2013-05-21 11:46:00,82.1,68.1,29.89,NW,315,4.3,11.2,63,2.59,,,4.75,WUHU216HW,2013-05-21 15:46:00,
2013-05-21 11:51:00,81.9,67.6,29.89,West,270,6.3,10.7,62,2.59,,,4.75,WUHU216HW,2013-05-21 15:51:00,
2013-05-21 11:56:00,82.3,67.9,29.88,WNW,293,9.6,10.1,62,2.59,,,4.75,WUHU216HW,2013-05-21 15:56:00,
2013-05-21 12:01:00,82.4,68.0,29.88,West,270,5.4,10.1,62,2.59,,,4.75,WUHU216HW,2013-05-21 16:01:00,
2013-05-21 12:06:00,83.2,68.3,29.88,NW,315,8.9,8.9,61,2.59,,,5.14,WUHU216HW,2013-05-21 16:06:00,
2013-05-21 12:11:00,82.8,67.5,29.88,WNW,293,6.5,12.1,60,2.59,,,5.14,WUHU216HW,2013-05-21 16:11:00,
2013-05-21 12:16:00,82.8,67.5,29.88,NW,315,5.1,12.1,60,2.59,,,5.14,WUHU216HW,2013-05-21 16:16:00,
2013-05-21 12:21:00,83.2,67.3,29.88,NW,315,4.7,10.3,59,2.59,,,5.14,WUHU216HW,2013-05-21 16:21:00,
2013-05-21 12:26:00,83.3,67.5,29.88,WNW,293,4.0,10.3,59,2.59,,,5.14,WUHU216HW,2013-05-21 16:26:00,
2013-05-21 12:31:00,83.5,68.2,29.88,NW,315,7.8,11.2,60,2.59,,,5.14,WUHU216HW,2013-05-21 16:31:00,
2013-05-21 12:36:00,83.5,68.2,29.87,WNW,293,5.6,12.8,60,2.59,,,5.14,WUHU216HW,2013-05-21 16:36:00,
2013-05-21 12:41:00,83.5,68.2,29.87,NW,315,7.6,12.8,60,2.59,,,5.14,WUHU216HW,2013-05-21 16:41:00,
2013-05-21 12:46:00,83.3,67.5,29.87,NW,315,6.9,9.8,59,2.59,,,5.14,WUHU216HW,2013-05-21 16:46:00,
2013-05-21 12:51:00,83.9,69.5,29.87,NNW,338,5.6,9.8,62,2.59,,,5.14,WUHU216HW,2013-05-21 16:51:00,
2013-05-21 12:56:00,84.4,69.1,29.86,NW,315,1.8,8.7,60,2.59,,,5.14,WUHU216HW,2013-05-21 16:56:00,
2013-05-21 13:01:00,84.6,69.3,29.86,NW,315,8.1,9.4,60,2.59,,,5.54,WUHU216HW,2013-05-21 17:01:00,
2013-05-21 13:06:00,84.4,69.6,29.86,NW,315,8.5,9.4,61,2.59,,,5.54,WUHU216HW,2013-05-21 17:06:00,
2013-05-21 13:11:00,84.6,69.8,29.86,SSW,203,3.6,8.7,61,2.59,,,5.54,WUHU216HW,2013-05-21 17:11:00,
2013-05-21 13:16:00,85.0,70.0,29.85,WNW,293,4.7,8.5,61,2.59,,,5.54,WUHU216HW,2013-05-21 17:16:00,
2013-05-21 13:21:00,85.7,70.2,29.85,NW,315,2.9,8.1,60,2.59,,,5.54,WUHU216HW,2013-05-21 17:21:00,
2013-05-21 13:26:00,86.0,70.6,29.84,NW,315,6.9,8.1,60,2.59,,,5.54,WUHU216HW,2013-05-21 17:26:00,
2013-05-21 13:31:00,85.7,69.8,29.84,WNW,293,8.3,8.3,59,2.59,,,5.54,WUHU216HW,2013-05-21 17:31:00,
2013-05-21 13:36:00,86.0,71.0,29.84,NW,315,1.8,8.5,61,2.59,,,5.54,WUHU216HW,2013-05-21 17:36:00,
2013-05-21 13:41:00,86.4,70.4,29.84,WNW,293,3.4,8.5,59,2.59,,,5.54,WUHU216HW,2013-05-21 17:41:00,
2013-05-21 13:46:00,86.6,70.6,29.83,SW,225,3.4,9.2,59,2.59,,,5.54,WUHU216HW,2013-05-21 17:46:00,
2013-05-21 13:51:00,87.1,71.1,29.83,NW,315,4.3,9.2,59,2.59,,,5.54,WUHU216HW,2013-05-21 17:51:00,
2013-05-21 13:56:00,87.5,71.5,29.83,WSW,248,2.0,7.6,59,2.59,,,5.54,WUHU216HW,2013-05-21 17:56:00,
2013-05-21 14:01:00,88.2,70.6,29.82,NW,315,5.4,7.6,56,2.59,,,5.94,WUHU216HW,2013-05-21 18:01:00,
2013-05-21 14:06:00,87.7,69.5,29.82,West,270,4.3,11.2,55,2.59,,,5.94,WUHU216HW,2013-05-21 18:06:00,
2013-05-21 14:11:00,86.8,68.7,29.82,NW,315,4.7,14.1,55,2.59,,,5.94,WUHU216HW,2013-05-21 18:11:00,
2013-05-21 14:16:00,85.9,68.3,29.82,WNW,293,8.7,15.0,56,2.59,,,5.94,WUHU216HW,2013-05-21 18:16:00,
2013-05-21 14:21:00,85.3,67.9,29.82,NW,315,5.4,15.0,56,2.59,,,5.94,WUHU216HW,2013-05-21 18:21:00,
2013-05-21 14:26:00,85.5,68.0,29.82,West,270,5.6,9.8,56,2.59,,,5.94,WUHU216HW,2013-05-21 18:26:00,
2013-05-21 14:31:00,85.5,67.5,29.82,NW,315,6.9,14.5,55,2.59,,,5.94,WUHU216HW,2013-05-21 18:31:00,
2013-05-21 14:36:00,86.0,68.5,29.82,NW,315,8.9,14.5,56,2.59,,,5.94,WUHU216HW,2013-05-21 18:36:00,
2013-05-21 14:41:00,86.6,69.5,29.82,NNW,338,1.8,13.9,57,2.59,,,5.94,WUHU216HW,2013-05-21 18:41:00,
2013-05-21 14:46:00,87.7,69.5,29.82,WNW,293,7.6,12.8,55,2.59,,,5.94,WUHU216HW,2013-05-21 18:46:00,
2013-05-21 14:51:00,88.6,69.8,29.82,NW,315,5.4,9.8,54,2.59,,,5.94,WUHU216HW,2013-05-21 18:51:00,
2013-05-21 14:56:00,88.9,69.6,29.82,NNW,338,9.2,9.6,53,2.59,,,5.94,WUHU216HW,2013-05-21 18:56:00,
2013-05-21 15:01:00,88.4,69.6,29.82,WNW,293,6.5,11.0,54,2.59,,,6.33,WUHU216HW,2013-05-21 19:01:00,
2013-05-21 15:06:00,88.0,68.8,29.82,WNW,293,13.2,13.2,53,2.59,,,6.33,WUHU216HW,2013-05-21 19:06:00,
2013-05-21 15:11:00,87.5,68.8,29.82,NW,315,7.4,13.9,54,2.59,,,6.33,WUHU216HW,2013-05-21 19:11:00,
2013-05-21 15:16:00,88.0,69.3,29.83,WSW,248,4.5,15.7,54,2.59,,,6.33,WUHU216HW,2013-05-21 19:16:00,
2013-05-21 15:21:00,88.4,68.0,29.82,NW,315,6.7,15.7,51,2.59,,,6.33,WUHU216HW,2013-05-21 19:21:00,
2013-05-21 15:26:00,87.8,68.6,29.83,NNW,338,6.3,13.0,53,2.59,,,6.33,WUHU216HW,2013-05-21 19:26:00,
2013-05-21 15:31:00,88.4,68.0,29.82,NNW,338,6.0,13.0,51,2.59,,,6.33,WUHU216HW,2013-05-21 19:31:00,
2013-05-21 15:36:00,88.4,68.5,29.83,NW,315,5.8,11.0,52,2.59,,,6.33,WUHU216HW,2013-05-21 19:36:00,
2013-05-21 15:41:00,88.6,68.1,29.82,NNW,338,6.3,11.0,51,2.59,,,6.33,WUHU216HW,2013-05-21 19:41:00,
2013-05-21 15:46:00,88.6,68.7,29.82,NW,315,6.3,9.6,52,2.59,,,6.33,WUHU216HW,2013-05-21 19:46:00,
2013-05-21 15:51:00,88.6,69.2,29.82,North,0,4.7,9.6,53,2.59,,,6.33,WUHU216HW,2013-05-21 19:51:00,
2013-05-21 15:56:00,87.7,67.9,29.82,NW,315,10.5,13.4,52,2.59,,,6.33,WUHU216HW,2013-05-21 19:56:00,
2013-05-21 16:01:00,87.1,68.4,29.82,NNW,338,7.6,13.4,54,2.59,,,6.73,WUHU216HW,2013-05-21 20:01:00,
2013-05-21 16:06:00,87.7,68.4,29.81,NW,315,10.7,11.9,53,2.59,,,6.73,WUHU216HW,2013-05-21 20:06:00,
2013-05-21 16:11:00,86.4,68.9,29.81,NW,315,11.0,11.9,56,2.59,,,6.73,WUHU216HW,2013-05-21 20:11:00,
2013-05-21 16:16:00,86.2,68.7,29.81,NW,315,7.2,14.5,56,2.59,,,6.73,WUHU216HW,2013-05-21 20:16:00,
2013-05-21 16:21:00,86.4,68.9,29.81,WSW,248,8.1,14.5,56,2.59,,,6.73,WUHU216HW,2013-05-21 20:21:00,
2013-05-21 16:26:00,86.9,69.3,29.81,NW,315,9.4,13.2,56,2.59,,,6.73,WUHU216HW,2013-05-21 20:26:00,
2013-05-21 16:31:00,86.2,69.2,29.81,NNW,338,6.9,13.2,57,2.59,,,6.73,WUHU216HW,2013-05-21 20:31:00,
2013-05-21 16:36:00,85.9,68.9,29.81,NW,315,4.7,13.4,57,2.59,,,6.73,WUHU216HW,2013-05-21 20:36:00,
2013-05-21 16:41:00,86.2,69.2,29.81,West,270,8.5,13.4,57,2.59,,,6.73,WUHU216HW,2013-05-21 20:41:00,
2013-05-21 16:46:00,85.5,68.0,29.81,NW,315,11.0,14.5,56,2.59,,,6.73,WUHU216HW,2013-05-21 20:46:00,
2013-05-21 16:51:00,84.8,67.9,29.81,NW,315,6.9,14.5,57,2.59,,,6.73,WUHU216HW,2013-05-21 20:51:00,
2013-05-21 16:56:00,84.6,68.2,29.81,West,270,10.1,12.8,58,2.59,,,6.73,WUHU216HW,2013-05-21 20:56:00,
2013-05-21 17:01:00,84.4,68.0,29.81,NW,315,8.9,12.8,58,2.59,,,7.13,WUHU216HW,2013-05-21 21:01:00,
2013-05-21 17:06:00,84.6,67.7,29.81,WNW,293,6.3,11.4,57,2.59,,,7.13,WUHU216HW,2013-05-21 21:06:00,
2013-05-21 17:11:00,84.4,67.5,29.81,NNW,338,6.3,12.8,57,2.59,,,7.13,WUHU216HW,2013-05-21 21:11:00,
2013-05-21 17:16:00,83.9,67.1,29.81,WNW,293,8.7,12.8,57,2.59,,,7.13,WUHU216HW,2013-05-21 21:16:00,
2013-05-21 17:21:00,83.9,67.5,29.81,WSW,248,4.0,11.4,58,2.59,,,7.13,WUHU216HW,2013-05-21 21:21:00,
2013-05-21 17:26:00,84.2,67.4,29.81,NW,315,5.8,9.4,57,2.59,,,7.13,WUHU216HW,2013-05-21 21:26:00,
2013-05-21 17:31:00,84.6,67.7,29.81,NNW,338,6.9,9.2,57,2.59,,,7.13,WUHU216HW,2013-05-21 21:31:00,
2013-05-21 17:36:00,84.1,65.6,29.81,WNW,293,12.5,15.4,54,2.59,,,7.13,WUHU216HW,2013-05-21 21:36:00,
2013-05-21 17:40:00,83.5,64.5,29.81,WNW,293,6.9,15.4,53,2.59,,,7.13,WUHU216HW,2013-05-21 21:40:00,
2013-05-21 17:46:00,83.5,64.5,29.81,NW,315,6.7,12.5,53,2.59,,,7.13,WUHU216HW,2013-05-21 21:46:00,
2013-05-21 17:50:00,83.5,63.0,29.81,NW,315,7.6,12.1,50,2.59,,,7.13,WUHU216HW,2013-05-21 21:50:00,
2013-05-21 17:55:00,82.8,61.7,29.81,WNW,293,11.2,12.5,49,2.59,,,7.13,WUHU216HW,2013-05-21 21:55:00,
2013-05-21 18:00:00,83.2,62.6,29.81,NW,315,8.7,12.5,50,2.59,,,7.52,WUHU216HW,2013-05-21 22:00:00,
2013-05-21 18:05:00,83.3,62.8,29.81,West,270,6.9,11.2,50,2.59,,,7.52,WUHU216HW,2013-05-21 22:05:00,
2013-05-21 18:10:00,83.5,61.7,29.81,NW,315,10.5,10.5,48,2.59,,,7.52,WUHU216HW,2013-05-21 22:10:00,
2013-05-21 18:15:00,83.2,60.8,29.81,NW,315,9.8,10.7,47,2.59,,,7.52,WUHU216HW,2013-05-21 22:15:00,
2013-05-21 18:20:00,82.8,60.4,29.80,WSW,248,7.2,10.7,47,2.59,,,7.52,WUHU216HW,2013-05-21 22:20:00,
2013-05-21 18:25:00,83.2,61.4,29.80,NNW,338,5.6,11.0,48,2.59,,,7.52,WUHU216HW,2013-05-21 22:25:00,
2013-05-21 18:30:00,83.5,60.5,29.80,NW,315,5.8,11.0,46,2.59,,,7.52,WUHU216HW,2013-05-21 22:30:00,
2013-05-21 18:35:00,83.2,60.1,29.81,NW,315,8.5,11.6,46,2.59,,,7.52,WUHU216HW,2013-05-21 22:35:00,
2013-05-21 18:40:00,81.7,60.0,29.81,NW,315,5.1,11.6,48,2.59,,,7.52,WUHU216HW,2013-05-21 22:40:00,
2013-05-21 18:45:00,80.8,59.9,29.81,WNW,293,5.4,11.0,49,2.59,,,7.52,WUHU216HW,2013-05-21 22:45:00,
2013-05-21 18:50:00,80.3,59.9,29.80,NW,315,6.0,9.4,50,2.59,,,7.52,WUHU216HW,2013-05-21 22:50:00,
2013-05-21 18:55:00,79.9,60.2,29.80,WNW,293,6.9,9.4,51,2.59,,,7.52,WUHU216HW,2013-05-21 22:55:00,
2013-05-21 19:00:00,79.2,60.0,29.81,WSW,248,4.3,7.6,52,2.59,,,7.92,WUHU216HW,2013-05-21 23:00:00,
2013-05-21 19:05:00,78.8,60.2,29.80,NNW,338,4.3,7.6,53,2.59,,,7.92,WUHU216HW,2013-05-21 23:05:00,
2013-05-21 19:10:00,79.0,60.4,29.79,NW,315,3.4,6.3,53,2.59,,,7.92,WUHU216HW,2013-05-21 23:10:00,
2013-05-21 19:15:00,79.0,60.4,29.80,North,0,2.7,6.9,53,2.59,,,7.92,WUHU216HW,2013-05-21 23:15:00,
2013-05-21 19:20:00,79.0,59.9,29.80,NW,315,2.5,6.9,52,2.59,,,7.92,WUHU216HW,2013-05-21 23:20:00,
2013-05-21 19:25:00,78.8,59.8,29.80,NW,315,5.6,7.6,52,2.59,,,7.92,WUHU216HW,2013-05-21 23:25:00,
2013-05-21 19:30:00,78.1,60.6,29.81,NNW,338,7.4,8.5,55,2.59,,,7.92,WUHU216HW,2013-05-21 23:30:00,
2013-05-21 19:35:00,76.5,61.7,29.82,NW,315,10.1,10.1,60,2.59,,,7.92,WUHU216HW,2013-05-21 23:35:00,
2013-05-21 19:40:00,74.9,61.0,29.81,West,270,6.9,13.4,62,2.60,,,7.93,WUHU216HW,2013-05-21 23:40:00,
2013-05-21 19:45:00,73.8,61.3,29.81,NW,315,5.4,13.4,65,2.61,,,7.94,WUHU216HW,2013-05-21 23:45:00,
2013-05-21 19:50:00,73.1,61.0,29.82,NNW,338,3.4,11.4,66,2.61,,,7.94,WUHU216HW,2013-05-21 23:50:00,
2013-05-21 19:55:00,72.5,60.9,29.82,NW,315,2.7,11.4,67,2.61,,,7.94,WUHU216HW,2013-05-21 23:55:00,
2013-05-21 20:00:00,72.7,62.8,29.82,NW,315,2.0,4.0,71,2.61,,,8.36,WUHU216HW,2013-05-22 00:00:00,
2013-05-21 20:05:00,72.4,62.5,29.84,West,270,4.5,6.3,71,2.61,,,8.36,WUHU216HW,2013-05-22 00:05:00,
2013-05-21 20:10:00,72.0,62.5,29.82,NNE,23,1.6,6.3,72,2.61,,,8.36,WUHU216HW,2013-05-22 00:10:00,
2013-05-21 20:15:00,71.6,61.7,29.82,North,0,0.0,4.5,71,2.61,,,8.36,WUHU216HW,2013-05-22 00:15:00,
2013-05-21 20:20:00,71.8,63.1,29.82,SE,135,2.2,3.1,74,2.61,,,8.36,WUHU216HW,2013-05-22 00:20:00,
2013-05-21 20:25:00,71.8,62.7,29.82,SSE,158,1.8,3.4,73,2.61,,,8.36,WUHU216HW,2013-05-22 00:25:00,
2013-05-21 20:30:00,71.6,62.9,29.82,SSW,203,0.4,3.4,74,2.61,,,8.36,WUHU216HW,2013-05-22 00:30:00,
2013-05-21 20:35:00,71.8,63.1,29.82,NW,315,0.9,2.7,74,2.61,,,8.36,WUHU216HW,2013-05-22 00:35:00,
2013-05-21 20:40:00,71.6,64.0,29.84,NNE,23,4.3,4.3,77,2.59,,,8.36,WUHU216HW,2013-05-22 00:40:00,
2013-05-21 20:45:00,71.1,63.1,29.82,NW,315,0.2,4.3,76,2.59,,,8.36,WUHU216HW,2013-05-22 00:45:00,
2013-05-21 20:50:00,70.9,63.3,29.82,SE,135,0.2,4.3,77,2.59,,,8.36,WUHU216HW,2013-05-22 00:50:00,
2013-05-21 20:55:00,70.9,63.3,29.82,NNE,23,0.0,2.9,77,2.59,,,8.36,WUHU216HW,2013-05-22 00:55:00,
2013-05-21 21:00:00,70.7,63.1,29.82,NE,45,0.0,1.3,77,2.59,,,8.77,WUHU216HW,2013-05-22 01:00:00,
2013-05-21 21:05:00,70.7,62.7,29.81,SSW,203,1.1,1.3,76,2.59,,,8.77,WUHU216HW,2013-05-22 01:05:00,
2013-05-21 21:10:00,70.7,63.1,29.82,West,270,1.1,1.8,77,2.59,,,8.77,WUHU216HW,2013-05-22 01:10:00,
2013-05-21 21:15:00,70.7,62.7,29.83,NW,315,0.0,1.8,76,2.59,,,8.77,WUHU216HW,2013-05-22 01:15:00,
2013-05-21 21:20:00,70.6,62.9,29.82,SSW,203,0.4,1.1,77,2.59,,,8.77,WUHU216HW,2013-05-22 01:20:00,
2013-05-21 21:25:00,70.6,62.9,29.82,South,180,0.7,0.7,77,2.59,,,8.77,WUHU216HW,2013-05-22 01:25:00,
2013-05-21 21:30:00,70.7,63.1,29.82,SSE,158,0.4,0.7,77,2.59,,,8.77,WUHU216HW,2013-05-22 01:30:00,
2013-05-21 21:35:00,70.6,62.9,29.82,SE,135,0.0,1.8,77,2.59,,,8.77,WUHU216HW,2013-05-22 01:35:00,
2013-05-21 21:40:00,70.2,62.6,29.82,ENE,68,0.9,1.8,77,2.59,,,8.77,WUHU216HW,2013-05-22 01:40:00,
2013-05-21 21:45:00,70.0,62.4,29.82,South,180,0.0,1.3,77,2.59,,,8.77,WUHU216HW,2013-05-22 01:45:00,
2013-05-21 21:50:00,69.8,62.2,29.82,SSW,203,0.0,0.9,77,2.59,,,8.77,WUHU216HW,2013-05-22 01:50:00,
2013-05-21 21:55:00,69.8,62.2,29.82,SSW,203,0.0,0.0,77,2.59,,,8.77,WUHU216HW,2013-05-22 01:55:00,
2013-05-21 22:00:00,69.3,61.7,29.82,WNW,293,0.0,1.8,77,2.59,,,8.77,WUHU216HW,2013-05-22 02:00:00,
2013-05-21 22:05:00,68.8,61.7,29.82,WSW,248,0.9,1.8,78,2.59,,,9.19,WUHU216HW,2013-05-22 02:05:00,
2013-05-21 22:10:00,68.6,61.8,29.82,SW,225,1.1,2.5,79,2.59,,,9.19,WUHU216HW,2013-05-22 02:10:00,
2013-05-21 22:15:00,68.6,62.2,29.82,SW,225,2.2,2.5,80,2.59,,,9.19,WUHU216HW,2013-05-22 02:15:00,
2013-05-21 22:20:00,68.4,62.1,29.82,WNW,293,0.7,2.5,80,2.59,,,9.19,WUHU216HW,2013-05-22 02:20:00,
2013-05-21 22:25:00,68.4,62.1,29.83,SSW,203,0.0,2.5,80,2.59,,,9.19,WUHU216HW,2013-05-22 02:25:00,
2013-05-21 22:30:00,68.6,62.2,29.82,SW,225,0.0,1.8,80,2.59,,,9.19,WUHU216HW,2013-05-22 02:30:00,
2013-05-21 22:35:00,68.8,62.4,29.83,WSW,248,1.1,1.3,80,2.59,,,9.19,WUHU216HW,2013-05-22 02:35:00,
2013-05-21 22:40:00,68.6,62.2,29.83,WSW,248,1.6,2.5,80,2.59,,,9.19,WUHU216HW,2013-05-22 02:40:00,
2013-05-21 22:45:00,68.6,62.6,29.83,SW,225,1.1,2.7,81,2.59,,,9.19,WUHU216HW,2013-05-22 02:45:00,
2013-05-21 22:50:00,68.4,62.4,29.82,SSW,203,0.4,2.7,81,2.59,,,9.19,WUHU216HW,2013-05-22 02:50:00,
2013-05-21 22:55:00,68.4,62.1,29.82,West,270,2.2,2.2,80,2.59,,,9.19,WUHU216HW,2013-05-22 02:55:00,
2013-05-21 23:00:00,68.0,62.1,29.82,SW,225,1.3,2.9,81,2.59,,,9.19,WUHU216HW,2013-05-22 03:00:00,
2013-05-21 23:05:00,68.0,62.1,29.82,WSW,248,1.8,2.9,81,2.59,,,9.61,WUHU216HW,2013-05-22 03:05:00,
2013-05-21 23:10:00,67.9,61.9,29.83,NW,315,1.8,2.2,81,2.59,,,9.61,WUHU216HW,2013-05-22 03:10:00,
2013-05-21 23:15:00,67.9,61.9,29.82,SW,225,1.3,2.5,81,2.59,,,9.61,WUHU216HW,2013-05-22 03:15:00,
2013-05-21 23:20:00,67.7,61.8,29.82,SW,225,1.3,2.5,81,2.59,,,9.61,WUHU216HW,2013-05-22 03:20:00,
2013-05-21 23:25:00,67.7,61.8,29.82,SSW,203,0.4,1.8,81,2.59,,,9.61,WUHU216HW,2013-05-22 03:25:00,
2013-05-21 23:30:00,67.9,61.9,29.82,South,180,0.7,1.8,81,2.59,,,9.61,WUHU216HW,2013-05-22 03:30:00,
2013-05-21 23:35:00,67.9,61.9,29.82,WSW,248,0.0,1.6,81,2.59,,,9.61,WUHU216HW,2013-05-22 03:35:00,
2013-05-21 23:40:00,67.7,62.0,29.82,SSW,203,1.3,1.3,82,2.59,,,9.61,WUHU216HW,2013-05-22 03:40:00,
2013-05-21 23:45:00,67.7,62.0,29.82,West,270,0.0,2.2,82,2.59,,,9.61,WUHU216HW,2013-05-22 03:45:00,
2013-05-21 23:50:00,67.7,62.0,29.81,West,270,0.0,2.2,82,2.59,,,9.61,WUHU216HW,2013-05-22 03:50:00,
2013-05-21 23:55:00,67.7,62.0,29.82,SW,225,0.0,0.0,82,2.59,,,9.61,WUHU216HW,2013-05-22 03:55:00,